Torna al catalogo

FENGYUN 1C DEB

LostSSO
NORAD 31162·DEBRIS·🇨🇳 China

Lanciato May 10, 1999 da Taiyuan Satellite Launch Center

Loading…

Prossimi Passaggi (prossime 24 ore)

TLE

ObsoletoSource: Space-Track

Epoca: Jul 16, 2008, 04:15 UTC

1 31162U 99025BHQ 08198.17738174  .00000568  00000-0  40040-3 0  9992
2 31162  99.2571 175.9319 0130588 344.9770  14.8021 13.98255392 68177

Traccia FENGYUN 1C DEB in tempo reale con AllMySat

Download on the App Store